Regional Weather Roundup
Issued by NWS

Home | Current Version | Previous Version | Text Only | Print | Product List | Glossary On
Versions: 1 2 3 4 5 6 7 8 9 10 11 12 13 14 15 16 17 18 19 20 21 22 23 24 25 26 27 28 29 30 31 32 33 34 35 36 37 38 39 40 41 42 43 44 45 46 47 48 49 50
000
ASUS43 KMKX 021400
RWRWI

WISCONSIN REGIONAL WEATHER ROUNDUP
NATIONAL WEATHER SERVICE MILWAUKEE/SULLIVAN WI
900 AM CDT SUN AUG 02 2015

NOTE: "FAIR" INDICATES FEW OR NO CLOUDS BELOW 12,000 FEET WITH NO
SIGNIFICANT WEATHER AND/OR OBSTRUCTIONS TO VISIBILITY.

WIZ001-002-006>008-014>016-023>028-021500-
NORTHWEST WISCONSIN

CITY           SKY/WX    TMP DP  RH WIND       PRES   REMARKS
SUPERIOR ARPT  PTSUNNY   70  63  78 S6        29.60F
ASHLAND        PTSUNNY   70  66  87 CALM      29.64S
HAYWARD        PTSUNNY   67  65  93 W6        29.67R
SIREN          PTSUNNY   68  63  85 S5        29.65F
CUMBERLAND     MOSUNNY   70  64  83 SW3       29.67S
RICE LAKE      MOSUNNY   71  65  81 SW7       29.67F
CHETEK         MOSUNNY   72  66  81 S6        29.66F
LADYSMITH      PTSUNNY   70  66  87 S7        29.68F
EAU CLAIRE     NOT AVBL
MENOMONIE      MOSUNNY   74  65  73 SW6       29.68S
NEW RICHMOND   MOSUNNY   74  64  71 SW9       29.66F
OSCEOLA        SUNNY     74  69  86 SW7       29.67F
$$

WIZ003>005-009-010-017-018-021500-
NORTH CENTRAL WISCONSIN

CITY           SKY/WX    TMP DP  RH WIND       PRES   REMARKS
MANITOWISH WTR CLOUDY    65  63  91 CALM      29.67F
ARBOR VITAE    CLOUDY    64  62  91 CALM      29.67S
WOODRUFF       CLOUDY    64  62  91 CALM      29.67S
RHINELANDER    CLOUDY    63  60  90 W6        29.68R
EAGLE RIVER    CLOUDY    64  64 100 CALM      29.67F
LAND O LAKES   CLOUDY    65  61  87 CALM      29.69R
PHILLIPS       CLOUDY    63  62  95 CALM      29.68F
TOMAHAWK       CLOUDY    64  60  88 W5        29.68R
MEDFORD        CLOUDY    69  66  90 SW8       29.70R
MERRILL        NOT AVBL
$$

WIZ029-030-035-036-043>047-021500-
CENTRAL WISCONSIN

CITY           SKY/WX    TMP DP  RH WIND       PRES   REMARKS
WAUSAU         LGT RAIN  70  67  90 SW12      29.67F
MOSINEE        PTSUNNY   70  70 100 S8        29.71F
MARSHFIELD     PTSUNNY   73  66  78 W9        29.71F
STEVENS POINT  CLOUDY    71  66  86 W7G16     29.73R
WAUPACA        PTSUNNY   79  68  68 W9        29.72R HX  81
WAUTOMA        NOT AVBL
WISC RAPIDS    CLOUDY    76  66  71 W7        29.73S
CAMP DOUGLAS   NOT AVBL
$$

WIZ011>013-019>022-031-037>040-048>050-021500-
NORTHEAST WISCONSIN

CITY           SKY/WX    TMP DP  RH WIND       PRES   REMARKS
ANTIGO         LGT RAIN  66  66  98 SW6       29.67F
SHAWANO        PTSUNNY   73  67  82 W6        29.71R
OCONTO         MOSUNNY   75  72  90 W10       29.68R
STURGEON BAY   MOSUNNY   77  66  69 W16G23    29.71R
GREEN BAY      MOSUNNY   77  69  76 SW12G21   29.70S
MANITOWOC      NOT AVBL
APPLETON       PTSUNNY   75  66  73 SW13G22   29.72R
CLINTONVILLE   PTSUNNY   72  66  83 W8        29.72R
OSHKOSH        PTSUNNY   77  68  73 SW7G17    29.71S
$$

WIZ032>034-041-042-053>061-021500-
SOUTHWEST WISCONSIN

CITY           SKY/WX    TMP DP  RH WIND       PRES   REMARKS
LA CROSSE      SUNNY     80  68  66 VRB5G17   29.72R HX  83
SPARTA         SUNNY     79  66  65 W12       29.74R HX  81
VIROQUA        SUNNY     76  68  74 SW12G18   29.75S
BOSCOBEL       PTSUNNY   80  67  64 SW12      29.75F HX  82
PRAIRIE DU CHI MOSUNNY   78  64  62 S8        29.75F
PLATTEVILLE    PTSUNNY   75  69  80 SW13      29.82S
$$

WIZ056-057-062-063-064-067-068-021500-
SOUTH CENTRAL WISCONSIN

CITY           SKY/WX    TMP DP  RH WIND       PRES   REMARKS
REEDSBURG      CLOUDY    75  69  81 SW14G20   29.73F
BARABOO/DELLS  CLOUDY    74  67  76 SW18G25   29.73F
LONE ROCK      NOT AVBL
MINERAL POINT  PTSUNNY   75  66  73 SW12      29.81F
MADISON        PTSUNNY   78  67  68 SW8G17    29.77F HX  80
MIDDLETON      PTSUNNY   77  66  69 SW15      29.78F
WATERTOWN      PTSUNNY   75  74  96 SW14      29.77F
MONROE         MOSUNNY   73  68  83 SW18G24   29.83R
JANESVILLE     PTSUNNY   79  68  69 SW12      29.81R HX  81
$$

WIZ051-052-058>065-066-070>072-021500-
SOUTHEAST WISCONSIN

CITY           SKY/WX    TMP DP  RH WIND       PRES   REMARKS
MILWAUKEE      MOSUNNY   80  68  66 SW20G28   29.77F HX  83
WAUKESHA       MOSUNNY   77  66  69 SW12G23   29.79F
MILWAUKEE/TIMM SUNNY     81  66  61 W17G24    29.78S HX  83
RACINE         SUNNY     80  68  66 W14G22    29.81R HX  83
BURLINGTON     SUNNY     76  67  74 SW12      29.81R
KENOSHA        SUNNY     81  70  69 SW17      29.81S HX  84
FOND DU LAC    LGT RAIN  75  70  84 SW9G17    29.72S
SHEBOYGAN      LGT RAIN  78  69  73 W15       29.72F HX  80
WEST BEND      MOSUNNY   77  66  69 SW13G24   29.75F
JUNEAU         PTSUNNY   74  70  86 SW12      29.77F
$$

LSZ147-162-021500-
LAKE SUPERIOR

STATION/POSITION TIME  TEMP    WIND        PRES    WAVE
                       AIR SEA DIR/SP/G            HT/PER
                 (UTC) (F)     (DEG/KT/KT) (MB)    (FT/S)
W MID LAKE BUOY  1250   58 54  190/  6/  8 1002.7R   1/ 3
DEVILS ISLAND    1300   67     190/  6/  8 1003.1R
PORT WING        1340   70     190/  3/  5 1003.0F
SAXON HARBOR     1300   68                 1003.4R
$$

LMZ867-665-643>646-021500-
LAKE MICHIGAN

STATION/POSITION TIME  TEMP    WIND        PRES    WAVE
                       AIR SEA DIR/SP/G            HT/PER
                 (UTC) (F)     (DEG/KT/KT) (MB)    (FT/S)
CHAMBERS ISLAND  1300   69     210/  5/ 12 1004.7R
S GREEN BAY BUOY 1300   67 64  230/ 12/ 14 1006.8R
N MID LAKE BUOY  1250   69 68  210/ 14/ 16 1003.1F   3/ 4
NORTHPORT PIER   1300   74     240/  7/ 16 1004.4R
ALGOMA LAKESHORE 1212          240/ 13/ 19   N/A
KEWAUNEE LAKESHO 1300   72     230/  8/ 13 1004.8R
SHEBOYGAN LAKESH 1300   71     190/ 11/ 12 1006.4F
PORT WASHINGTON  1340   81     250/ 15/ 22 1007.1F
ATWATER BUOY     1300   73 57  230/ 12/ 14 1009.6S
MILWAUKEE LAKESH 1300   74     250/ 10/ 13   N/A
KENOSHA   LAKESH 1300   77     220/ 11/ 16 1009.1F
$$

TC  - TEMPERATURE IN CELSIUS
VSB - VISIBILITY IN STATUTE MILES
WCI - WIND CHILL INDEX
HX  - HEAT INDEX




USA.gov is the U.S. government's official web portal to all federal, state and local government web resources and services.